Weather in Maloye Verevo

Russia / Saint-Petersburg and Leningrad Oblast     59°36′50″N   30°09′53″E
temp.,
°C
wind,
m/s
gust,
m/s
humid.,
%
clouds,
%
prec.,
mm/h
press.,
hPa
HPBL,
m
8 august, mon
mon800:00+12sw227872 0.0 102116
03:00+12ssw2483100 0.0 102182
06:00+12ssw2381100 0.0 102279
09:00+17ssw3561100 0.0 1022414
12:00+21ssw354877 0.1 10221399
15:00+17wsw4577100 1.3 1023587
18:00+13n2396100 1.4 1024144
21:00+13ese1195100 1.5 102420
9 august, tue
tue900:00+11nw00977 0.0 102510
03:00+10nnw11967 0.0 102510
06:00+10ne119617 0.0 102610
09:00+15nne128015 0.0 1026312
12:00+19nne23522 0.0 10261236
15:00+21n33467 0.1 10261707
18:00+19nne345451 0.0 10261007
21:00+13nne22755 0.0 102620
10 august, wed
wed1000:00+11ne11795 0.0 102610
03:00+10nw11815 0.0 102610
06:00+10nnw11825 0.0 102710
09:00+17ene00535 0.0 1026299
12:00+21e01393 0.0 10261602
15:00+22nnw2235100 0.0 10251974
18:00+21nne224569 0.0 1025879
21:00+14nne11745 0.0 102410
11 august, thu
thu1100:00+13ssw2275100 0.0 102519
03:00+12sw247684 0.0 102570
06:00+12sw268199 0.0 1024119
09:00+17sw486355 0.0 1024347
12:00+22sw573999 0.0 10231347
15:00+22sw4842100 0.0 10221446
18:00+22sw494918 0.0 10211257
21:00+18sw31264100 0.0 1020337
12 august, fri
fri1200:00+16sw3117681 0.0 1021271
03:00+14sw3108746 0.0 1021232
06:00+14sw399213 0.0 1021228
09:00+19wsw48675 0.0 1021495
12:00+24wsw46495 0.0 10211095
15:00+27wsw46425 0.0 10201721
18:00+25sw45495 0.0 10201307
21:00+19sw267410 0.0 1020125